Year,Month,Day,Hour,Minute,Value (Times are PST for temperature in C)
2010,07,02,00,00,10.60
2010,07,02,00,01,10.60
2010,07,02,00,02,10.60
2010,07,02,00,03,10.60
2010,07,02,00,04,10.60
2010,07,02,00,05,10.60
2010,07,02,00,06,10.60
2010,07,02,00,07,10.60
2010,07,02,00,08,10.60
2010,07,02,00,09,10.60
2010,07,02,00,10,10.60
2010,07,02,00,11,10.60
2010,07,02,00,12,10.60
2010,07,02,00,13,10.60
2010,07,02,00,14,10.60
2010,07,02,00,15,10.60
2010,07,02,00,16,10.60
2010,07,02,00,17,10.60
2010,07,02,00,18,10.50
2010,07,02,00,19,10.50
2010,07,02,00,20,10.50
2010,07,02,00,21,10.50
2010,07,02,00,22,10.50
2010,07,02,00,23,10.50
2010,07,02,00,24,10.50
2010,07,02,00,25,10.50
2010,07,02,00,26,10.50
2010,07,02,00,27,10.50
2010,07,02,00,28,10.40
2010,07,02,00,29,10.40
2010,07,02,00,30,10.40
2010,07,02,00,31,10.40
2010,07,02,00,32,10.40
2010,07,02,00,33,10.40
2010,07,02,00,34,10.40
2010,07,02,00,35,10.40
2010,07,02,00,36,10.40
2010,07,02,00,37,10.40
2010,07,02,00,38,10.40
2010,07,02,00,39,10.40
2010,07,02,00,40,10.40
2010,07,02,00,41,10.40
2010,07,02,00,42,10.40
2010,07,02,00,43,10.40
2010,07,02,00,44,10.40
2010,07,02,00,45,10.40
2010,07,02,00,46,10.40
2010,07,02,00,47,10.40
2010,07,02,00,48,10.40
2010,07,02,00,49,10.40
2010,07,02,00,50,10.40
2010,07,02,00,51,10.40
2010,07,02,00,52,10.40
2010,07,02,00,53,10.40
2010,07,02,00,54,10.40
2010,07,02,00,55,10.40
2010,07,02,00,56,10.30
2010,07,02,00,57,10.40
2010,07,02,00,58,10.30
2010,07,02,00,59,10.30
2010,07,02,01,00,10.30
2010,07,02,01,01,10.30
2010,07,02,01,02,10.30
2010,07,02,01,03,10.30
2010,07,02,01,04,10.30
2010,07,02,01,05,10.30
2010,07,02,01,06,10.30
2010,07,02,01,07,10.30
2010,07,02,01,08,10.30
2010,07,02,01,09,10.30
2010,07,02,01,10,10.30
2010,07,02,01,11,10.30
2010,07,02,01,12,10.30
2010,07,02,01,13,10.30
2010,07,02,01,14,10.30
2010,07,02,01,15,10.30
2010,07,02,01,16,10.30
2010,07,02,01,17,10.30
2010,07,02,01,18,10.30
2010,07,02,01,19,10.30
2010,07,02,01,20,10.30
2010,07,02,01,21,10.30
2010,07,02,01,22,10.30
2010,07,02,01,23,10.30
2010,07,02,01,24,10.30
2010,07,02,01,25,10.30
2010,07,02,01,26,10.30
2010,07,02,01,27,10.30
2010,07,02,01,28,10.30
2010,07,02,01,29,10.30
2010,07,02,01,30,10.30
2010,07,02,01,31,10.30
2010,07,02,01,32,10.30
2010,07,02,01,33,10.30
2010,07,02,01,34,10.30
2010,07,02,01,35,10.30
2010,07,02,01,36,10.30
2010,07,02,01,37,10.30
2010,07,02,01,38,10.30
2010,07,02,01,39,10.30
2010,07,02,01,40,10.30
2010,07,02,01,41,10.20
2010,07,02,01,42,10.20
2010,07,02,01,43,10.20
2010,07,02,01,44,10.20
2010,07,02,01,45,10.20
2010,07,02,01,46,10.20
2010,07,02,01,47,10.20
2010,07,02,01,48,10.20
2010,07,02,01,49,10.20
2010,07,02,01,50,10.20
2010,07,02,01,51,10.20
2010,07,02,01,52,10.20
2010,07,02,01,53,10.20
2010,07,02,01,54,10.20
2010,07,02,01,55,10.20
2010,07,02,01,56,10.20
2010,07,02,01,57,10.20
2010,07,02,01,58,10.20
2010,07,02,01,59,10.20
2010,07,02,02,00,10.20
2010,07,02,02,01,10.20
2010,07,02,02,02,10.20
2010,07,02,02,03,10.20
2010,07,02,02,04,10.20
2010,07,02,02,05,10.20
2010,07,02,02,06,10.10
2010,07,02,02,07,10.10
2010,07,02,02,08,10.10
2010,07,02,02,09,10.10
2010,07,02,02,10,10.10
2010,07,02,02,11,10.10
2010,07,02,02,12,10.10
2010,07,02,02,13,10.10
2010,07,02,02,14,10.10
2010,07,02,02,15,10.20
2010,07,02,02,16,10.20
2010,07,02,02,17,10.20
2010,07,02,02,18,10.20
2010,07,02,02,19,10.20
2010,07,02,02,20,10.20
2010,07,02,02,21,10.20
2010,07,02,02,22,10.20
2010,07,02,02,23,10.20
2010,07,02,02,24,10.20
2010,07,02,02,25,10.20
2010,07,02,02,26,10.20
2010,07,02,02,27,10.20
2010,07,02,02,28,10.20
2010,07,02,02,29,10.20
2010,07,02,02,30,10.20
2010,07,02,02,31,10.20
2010,07,02,02,32,10.20
2010,07,02,02,33,10.20
2010,07,02,02,34,10.20
2010,07,02,02,35,10.20
2010,07,02,02,36,10.20
2010,07,02,02,37,10.20
2010,07,02,02,38,10.20
2010,07,02,02,39,10.20
2010,07,02,02,40,10.20
2010,07,02,02,41,10.20
2010,07,02,02,42,10.20
2010,07,02,02,43,10.20
2010,07,02,02,44,10.20
2010,07,02,02,45,10.20
2010,07,02,02,46,10.20
2010,07,02,02,47,10.20
2010,07,02,02,48,10.20
2010,07,02,02,49,10.20
2010,07,02,02,50,10.20
2010,07,02,02,51,10.20
2010,07,02,02,52,10.20
2010,07,02,02,53,10.20
2010,07,02,02,54,10.20
2010,07,02,02,55,10.10
2010,07,02,02,56,10.10
2010,07,02,02,57,10.10
2010,07,02,02,58,10.10
2010,07,02,02,59,10.10
2010,07,02,03,00,10.10
2010,07,02,03,01,10.10
2010,07,02,03,02,10.10
2010,07,02,03,03,10.10
2010,07,02,03,04,10.10
2010,07,02,03,05,10.10
2010,07,02,03,06,10.00
2010,07,02,03,07,10.00
2010,07,02,03,08,10.00
2010,07,02,03,09,10.00
2010,07,02,03,10,10.00
2010,07,02,03,11,10.00
2010,07,02,03,12,10.00
2010,07,02,03,13,10.00
2010,07,02,03,14,10.00
2010,07,02,03,15,10.00
2010,07,02,03,16,10.00
2010,07,02,03,17,10.00
2010,07,02,03,18,10.00
2010,07,02,03,19,10.00
2010,07,02,03,20,10.00
2010,07,02,03,21,10.00
2010,07,02,03,22,10.00
2010,07,02,03,23,10.00
2010,07,02,03,24,9.90
2010,07,02,03,25,9.90
2010,07,02,03,26,9.90
2010,07,02,03,27,9.90
2010,07,02,03,28,9.90
2010,07,02,03,29,9.90
2010,07,02,03,30,9.90
2010,07,02,03,31,9.80
2010,07,02,03,32,9.80
2010,07,02,03,33,9.80
2010,07,02,03,34,9.80
2010,07,02,03,35,9.80
2010,07,02,03,36,9.80
2010,07,02,03,37,9.70
2010,07,02,03,38,9.70
2010,07,02,03,39,9.70
2010,07,02,03,40,9.70
2010,07,02,03,41,9.70
2010,07,02,03,42,9.70
2010,07,02,03,43,9.70
2010,07,02,03,44,9.70
2010,07,02,03,45,9.70
2010,07,02,03,46,9.70
2010,07,02,03,47,9.70
2010,07,02,03,48,9.70
2010,07,02,03,49,9.70
2010,07,02,03,50,9.70
2010,07,02,03,51,9.60
2010,07,02,03,52,9.60
2010,07,02,03,53,9.60
2010,07,02,03,54,9.60
2010,07,02,03,55,9.60
2010,07,02,03,56,9.60
2010,07,02,03,57,9.60
2010,07,02,03,58,9.60
2010,07,02,03,59,9.50
2010,07,02,04,00,9.50
2010,07,02,04,01,9.50
2010,07,02,04,02,9.50
2010,07,02,04,03,9.50
2010,07,02,04,04,9.40
2010,07,02,04,05,9.40
2010,07,02,04,06,9.40
2010,07,02,04,07,9.40
2010,07,02,04,08,9.40
2010,07,02,04,09,9.40
2010,07,02,04,10,9.40
2010,07,02,04,11,9.40
2010,07,02,04,12,9.40
2010,07,02,04,13,9.40
2010,07,02,04,14,9.40
2010,07,02,04,15,9.40
2010,07,02,04,16,9.40
2010,07,02,04,17,9.40
2010,07,02,04,18,9.40
2010,07,02,04,19,9.40
2010,07,02,04,20,9.40
2010,07,02,04,21,9.40
2010,07,02,04,22,9.40
2010,07,02,04,23,9.40
2010,07,02,04,24,9.40
2010,07,02,04,25,9.40
2010,07,02,04,26,9.40
2010,07,02,04,27,9.40
2010,07,02,04,28,9.40
2010,07,02,04,29,9.40
2010,07,02,04,30,9.40
2010,07,02,04,31,9.40
2010,07,02,04,32,9.40
2010,07,02,04,33,9.30
2010,07,02,04,34,9.30
2010,07,02,04,35,9.30
2010,07,02,04,36,9.30
2010,07,02,04,37,9.30
2010,07,02,04,38,9.30
2010,07,02,04,39,9.20
2010,07,02,04,40,9.20
2010,07,02,04,41,9.20
2010,07,02,04,42,9.20
2010,07,02,04,43,9.20
2010,07,02,04,44,9.20
2010,07,02,04,45,9.20
2010,07,02,04,46,9.20
2010,07,02,04,47,9.20
2010,07,02,04,48,9.20
2010,07,02,04,49,9.20
2010,07,02,04,50,9.20
2010,07,02,04,51,9.20
2010,07,02,04,52,9.20
2010,07,02,04,53,9.20
2010,07,02,04,54,9.10
2010,07,02,04,55,9.10
2010,07,02,04,56,9.10
2010,07,02,04,57,9.10
2010,07,02,04,58,9.10
2010,07,02,04,59,9.10
2010,07,02,05,00,9.10
2010,07,02,05,01,9.00
2010,07,02,05,02,9.00
2010,07,02,05,03,9.00
2010,07,02,05,04,8.90
2010,07,02,05,05,8.90
2010,07,02,05,06,8.90
2010,07,02,05,07,8.90
2010,07,02,05,08,8.80
2010,07,02,05,09,8.80
2010,07,02,05,10,8.80
2010,07,02,05,11,8.80
2010,07,02,05,12,8.80
2010,07,02,05,13,8.70
2010,07,02,05,14,8.70
2010,07,02,05,15,8.70
2010,07,02,05,16,8.70
2010,07,02,05,17,8.70
2010,07,02,05,18,8.70
2010,07,02,05,19,8.70
2010,07,02,05,20,8.70
2010,07,02,05,21,8.70
2010,07,02,05,22,8.70
2010,07,02,05,23,8.70
2010,07,02,05,24,8.70
2010,07,02,05,25,8.70
2010,07,02,05,26,8.70
2010,07,02,05,27,8.70
2010,07,02,05,28,8.70
2010,07,02,05,29,8.70
2010,07,02,05,30,8.70
2010,07,02,05,31,8.70
2010,07,02,05,32,8.70
2010,07,02,05,33,8.70
2010,07,02,05,34,8.70
2010,07,02,05,35,8.70
2010,07,02,05,36,8.70
2010,07,02,05,37,8.60
2010,07,02,05,38,8.60
2010,07,02,05,39,8.60
2010,07,02,05,40,8.60
2010,07,02,05,41,8.60
2010,07,02,05,42,8.60
2010,07,02,05,43,8.50
2010,07,02,05,44,8.50
2010,07,02,05,45,8.50
2010,07,02,05,46,8.50
2010,07,02,05,47,8.50
2010,07,02,05,48,8.40
2010,07,02,05,49,8.40
2010,07,02,05,50,8.40
2010,07,02,05,51,8.40
2010,07,02,05,52,8.40
2010,07,02,05,53,8.40
2010,07,02,05,54,8.40
2010,07,02,05,55,8.50
2010,07,02,05,56,8.50
2010,07,02,05,57,8.50
2010,07,02,05,58,8.50
2010,07,02,05,59,8.60
2010,07,02,06,00,8.60
2010,07,02,06,01,8.60
2010,07,02,06,02,8.60
2010,07,02,06,03,8.60
2010,07,02,06,04,8.70
2010,07,02,06,05,8.70
2010,07,02,06,06,8.70
2010,07,02,06,07,8.70
2010,07,02,06,08,8.80
2010,07,02,06,09,8.80
2010,07,02,06,10,8.80
2010,07,02,06,11,8.80
2010,07,02,06,12,8.80
2010,07,02,06,13,8.80
2010,07,02,06,14,8.80
2010,07,02,06,15,8.80
2010,07,02,06,16,8.90
2010,07,02,06,17,8.90
2010,07,02,06,18,8.90
2010,07,02,06,19,9.00
2010,07,02,06,20,9.00
2010,07,02,06,21,9.10
2010,07,02,06,22,9.10
2010,07,02,06,23,9.10
2010,07,02,06,24,9.20
2010,07,02,06,25,9.20
2010,07,02,06,26,9.20
2010,07,02,06,27,9.20
2010,07,02,06,28,9.30
2010,07,02,06,29,9.30
2010,07,02,06,30,9.30
2010,07,02,06,31,9.30
2010,07,02,06,32,9.40
2010,07,02,06,33,9.40
2010,07,02,06,34,9.40
2010,07,02,06,35,9.40
2010,07,02,06,36,9.50
2010,07,02,06,37,9.50
2010,07,02,06,38,9.60
2010,07,02,06,39,9.60
2010,07,02,06,40,9.60
2010,07,02,06,41,9.60
2010,07,02,06,42,9.70
2010,07,02,06,43,9.70
2010,07,02,06,44,9.70
2010,07,02,06,45,9.70
2010,07,02,06,46,9.80
2010,07,02,06,47,9.80
2010,07,02,06,48,9.80
2010,07,02,06,49,9.90
2010,07,02,06,50,9.90
2010,07,02,06,51,9.90
2010,07,02,06,52,9.90
2010,07,02,06,53,9.90
2010,07,02,06,54,10.00
2010,07,02,06,55,10.00
2010,07,02,06,56,10.10
2010,07,02,06,57,10.10
2010,07,02,06,58,10.10
2010,07,02,06,59,10.20
2010,07,02,07,00,10.20
2010,07,02,07,01,10.20
2010,07,02,07,02,10.20
2010,07,02,07,03,10.20
2010,07,02,07,04,10.20
2010,07,02,07,05,10.20
2010,07,02,07,06,10.30
2010,07,02,07,07,10.30
2010,07,02,07,08,10.30
2010,07,02,07,09,10.40
2010,07,02,07,10,10.40
2010,07,02,07,11,10.40
2010,07,02,07,12,10.40
2010,07,02,07,13,10.40
2010,07,02,07,14,10.50
2010,07,02,07,15,10.50
2010,07,02,07,16,10.50
2010,07,02,07,17,10.50
2010,07,02,07,18,10.60
2010,07,02,07,19,10.60
2010,07,02,07,20,10.60
2010,07,02,07,21,10.70
2010,07,02,07,22,10.70
2010,07,02,07,23,10.70
2010,07,02,07,24,10.70
2010,07,02,07,25,10.80
2010,07,02,07,26,10.80
2010,07,02,07,27,10.80
2010,07,02,07,28,10.80
2010,07,02,07,29,10.90
2010,07,02,07,30,10.90
2010,07,02,07,31,10.90
2010,07,02,07,32,11.00
2010,07,02,07,33,11.00
2010,07,02,07,34,11.10
2010,07,02,07,35,11.10
2010,07,02,07,36,11.10
2010,07,02,07,37,11.20
2010,07,02,07,38,11.20
2010,07,02,07,39,11.20
2010,07,02,07,40,11.20
2010,07,02,07,41,11.30
2010,07,02,07,42,11.30
2010,07,02,07,43,11.30
2010,07,02,07,44,11.40
2010,07,02,07,45,11.40
2010,07,02,07,46,11.40
2010,07,02,07,47,11.40
2010,07,02,07,48,11.50
2010,07,02,07,49,11.50
2010,07,02,07,50,11.50
2010,07,02,07,51,11.60
2010,07,02,07,52,11.60
2010,07,02,07,53,11.60
2010,07,02,07,54,11.70
2010,07,02,07,55,11.70
2010,07,02,07,56,11.70
2010,07,02,07,57,11.70
2010,07,02,07,58,11.80
2010,07,02,07,59,11.80
2010,07,02,08,00,11.90
2010,07,02,08,01,11.90
2010,07,02,08,02,12.00
2010,07,02,08,03,12.10
2010,07,02,08,04,12.10
2010,07,02,08,05,12.20
2010,07,02,08,06,12.20
2010,07,02,08,07,12.30
2010,07,02,08,08,12.30
2010,07,02,08,09,12.30
2010,07,02,08,10,12.30
2010,07,02,08,11,12.40
2010,07,02,08,12,12.40
2010,07,02,08,13,12.40
2010,07,02,08,14,12.50
2010,07,02,08,15,12.50
2010,07,02,08,16,12.60
2010,07,02,08,17,12.60
2010,07,02,08,18,12.70
2010,07,02,08,19,12.70
2010,07,02,08,20,12.70
2010,07,02,08,21,12.80
2010,07,02,08,22,12.80
2010,07,02,08,23,12.80
2010,07,02,08,24,12.90
2010,07,02,08,25,13.00
2010,07,02,08,26,13.00
2010,07,02,08,27,13.10
2010,07,02,08,28,13.10
2010,07,02,08,29,13.20
2010,07,02,08,30,13.20
2010,07,02,08,31,13.20
2010,07,02,08,32,13.30
2010,07,02,08,33,13.30
2010,07,02,08,34,13.30
2010,07,02,08,35,13.30
2010,07,02,08,36,13.40
2010,07,02,08,37,13.40
2010,07,02,08,38,13.40
2010,07,02,08,39,13.50
2010,07,02,08,40,13.50
2010,07,02,08,41,13.60
2010,07,02,08,42,13.60
2010,07,02,08,43,13.60
2010,07,02,08,44,13.60
2010,07,02,08,45,13.70
2010,07,02,08,46,13.70
2010,07,02,08,47,13.70
2010,07,02,08,48,13.70
2010,07,02,08,49,13.70
2010,07,02,08,50,13.70
2010,07,02,08,51,13.70
2010,07,02,08,52,13.70
2010,07,02,08,53,13.60
2010,07,02,08,54,13.60
2010,07,02,08,55,13.70
2010,07,02,08,56,13.70
2010,07,02,08,57,13.70
2010,07,02,08,58,13.80
2010,07,02,08,59,13.90
2010,07,02,09,00,13.90
2010,07,02,09,01,13.90
2010,07,02,09,02,13.90
2010,07,02,09,03,13.90
2010,07,02,09,04,13.90
2010,07,02,09,05,13.90
2010,07,02,09,06,14.00
2010,07,02,09,07,14.10
2010,07,02,09,08,14.20
2010,07,02,09,09,14.30
2010,07,02,09,10,14.40
2010,07,02,09,11,14.50
2010,07,02,09,12,14.60
2010,07,02,09,13,14.70
2010,07,02,09,14,14.80
2010,07,02,09,15,14.80
2010,07,02,09,16,14.90
2010,07,02,09,17,15.00
2010,07,02,09,18,15.00
2010,07,02,09,19,15.00
2010,07,02,09,20,15.00
2010,07,02,09,21,15.00
2010,07,02,09,22,15.00
2010,07,02,09,23,15.00
2010,07,02,09,24,15.00
2010,07,02,09,25,15.10
2010,07,02,09,26,15.20
2010,07,02,09,27,15.30
2010,07,02,09,28,15.40
2010,07,02,09,29,15.50
2010,07,02,09,30,15.60
2010,07,02,09,31,15.60
2010,07,02,09,32,15.60
2010,07,02,09,33,15.50
2010,07,02,09,34,15.40
2010,07,02,09,35,15.40
2010,07,02,09,36,15.40
2010,07,02,09,37,15.30
2010,07,02,09,38,15.30
2010,07,02,09,39,15.30
2010,07,02,09,40,15.30
2010,07,02,09,41,15.30
2010,07,02,09,42,15.30
2010,07,02,09,43,15.30
2010,07,02,09,44,15.40
2010,07,02,09,45,15.30
2010,07,02,09,46,15.40
2010,07,02,09,47,15.40
2010,07,02,09,48,15.50
2010,07,02,09,49,15.50
2010,07,02,09,50,15.60
2010,07,02,09,51,15.70
2010,07,02,09,52,15.80
2010,07,02,09,53,16.00
2010,07,02,09,54,16.10
2010,07,02,09,55,16.10
2010,07,02,09,56,16.20
2010,07,02,09,57,16.20
2010,07,02,09,58,16.20
2010,07,02,09,59,16.10
2010,07,02,10,00,16.00
2010,07,02,10,01,16.00
2010,07,02,10,02,16.00
2010,07,02,10,03,16.00
2010,07,02,10,04,15.90
2010,07,02,10,05,15.90
2010,07,02,10,06,15.90
2010,07,02,10,07,15.90
2010,07,02,10,08,15.90
2010,07,02,10,09,15.80
2010,07,02,10,10,15.70
2010,07,02,10,11,15.60
2010,07,02,10,12,15.60
2010,07,02,10,13,15.60
2010,07,02,10,14,15.60
2010,07,02,10,15,15.60
2010,07,02,10,16,15.60
2010,07,02,10,17,15.60
2010,07,02,10,18,15.60
2010,07,02,10,19,15.60
2010,07,02,10,20,15.60
2010,07,02,10,21,15.50
2010,07,02,10,22,15.50
2010,07,02,10,23,15.40
2010,07,02,10,24,15.40
2010,07,02,10,25,15.40
2010,07,02,10,26,15.40
2010,07,02,10,27,15.40
2010,07,02,10,28,15.40
2010,07,02,10,29,15.40
2010,07,02,10,30,15.50
2010,07,02,10,31,15.40
2010,07,02,10,32,15.40
2010,07,02,10,33,15.30
2010,07,02,10,34,15.30
2010,07,02,10,35,15.30
2010,07,02,10,36,15.20
2010,07,02,10,37,15.20
2010,07,02,10,38,15.10
2010,07,02,10,39,15.00
2010,07,02,10,40,15.00
2010,07,02,10,41,15.00
2010,07,02,10,42,15.00
2010,07,02,10,43,14.90
2010,07,02,10,44,14.80
2010,07,02,10,45,14.80
2010,07,02,10,46,14.70
2010,07,02,10,47,14.70
2010,07,02,10,48,14.70
2010,07,02,10,49,14.60
2010,07,02,10,50,14.60
2010,07,02,10,51,14.60
2010,07,02,10,52,14.50
2010,07,02,10,53,14.50
2010,07,02,10,54,14.40
2010,07,02,10,55,14.40
2010,07,02,10,56,14.40
2010,07,02,10,57,14.40
2010,07,02,10,58,14.40
2010,07,02,10,59,14.40
2010,07,02,11,00,14.50
2010,07,02,11,01,14.50
2010,07,02,11,02,14.60
2010,07,02,11,03,14.60
2010,07,02,11,04,14.60
2010,07,02,11,05,14.60
2010,07,02,11,06,14.70
2010,07,02,11,07,14.70
2010,07,02,11,08,14.70
2010,07,02,11,09,14.80
2010,07,02,11,10,14.80
2010,07,02,11,11,14.90
2010,07,02,11,12,14.90
2010,07,02,11,13,15.00
2010,07,02,11,14,15.00
2010,07,02,11,15,15.00
2010,07,02,11,16,15.00
2010,07,02,11,17,15.00
2010,07,02,11,18,15.00
2010,07,02,11,19,15.10
2010,07,02,11,20,15.10
2010,07,02,11,21,15.00
2010,07,02,11,22,15.00
2010,07,02,11,23,15.10
2010,07,02,11,24,15.20
2010,07,02,11,25,15.20
2010,07,02,11,26,15.30
2010,07,02,11,27,15.40
2010,07,02,11,28,15.40
2010,07,02,11,29,15.40
2010,07,02,11,30,15.40
2010,07,02,11,31,15.40
2010,07,02,11,32,15.40
2010,07,02,11,33,15.30
2010,07,02,11,34,15.30
2010,07,02,11,35,15.20
2010,07,02,11,36,15.10
2010,07,02,11,37,15.00
2010,07,02,11,38,15.00
2010,07,02,11,39,15.00
2010,07,02,11,40,15.00
2010,07,02,11,41,15.00
2010,07,02,11,42,15.00
2010,07,02,11,43,15.00
2010,07,02,11,44,15.00
2010,07,02,11,45,15.00
2010,07,02,11,46,15.00
2010,07,02,11,47,15.10
2010,07,02,11,48,15.20
2010,07,02,11,49,15.10
2010,07,02,11,50,15.20
2010,07,02,11,51,15.20
2010,07,02,11,52,15.20
2010,07,02,11,53,15.30
2010,07,02,11,54,15.30
2010,07,02,11,55,15.30
2010,07,02,11,56,15.30
2010,07,02,11,57,15.30
2010,07,02,11,58,15.30
2010,07,02,11,59,15.30
2010,07,02,12,00,15.30
2010,07,02,12,01,15.30
2010,07,02,12,02,15.20
2010,07,02,12,03,15.10
2010,07,02,12,04,15.00
2010,07,02,12,05,15.00
2010,07,02,12,06,15.00
2010,07,02,12,07,15.00
2010,07,02,12,08,15.00
2010,07,02,12,09,15.00
2010,07,02,12,10,15.00
2010,07,02,12,11,14.90
2010,07,02,12,12,14.90
2010,07,02,12,13,14.90
2010,07,02,12,14,15.00
2010,07,02,12,15,15.00
2010,07,02,12,16,15.00
2010,07,02,12,17,15.00
2010,07,02,12,18,15.00
2010,07,02,12,19,15.00
2010,07,02,12,20,15.00
2010,07,02,12,21,15.00
2010,07,02,12,22,15.10
2010,07,02,12,23,15.10
2010,07,02,12,24,15.20
2010,07,02,12,25,15.20
2010,07,02,12,26,15.20
2010,07,02,12,27,15.20
2010,07,02,12,28,15.20
2010,07,02,12,29,15.30
2010,07,02,12,30,15.30
2010,07,02,12,31,15.30
2010,07,02,12,32,15.30
2010,07,02,12,33,15.30
2010,07,02,12,34,15.30
2010,07,02,12,35,15.20
2010,07,02,12,36,15.00
2010,07,02,12,37,15.00
2010,07,02,12,38,15.00
2010,07,02,12,39,15.00
2010,07,02,12,40,15.00
2010,07,02,12,41,15.00
2010,07,02,12,42,15.00
2010,07,02,12,43,15.00
2010,07,02,12,44,15.00
2010,07,02,12,45,15.10
2010,07,02,12,46,15.10
2010,07,02,12,47,15.20
2010,07,02,12,48,15.30
2010,07,02,12,49,15.30
2010,07,02,12,50,15.30
2010,07,02,12,51,15.30
2010,07,02,12,52,15.30
2010,07,02,12,53,15.40
2010,07,02,12,54,15.40
2010,07,02,12,55,15.40
2010,07,02,12,56,15.40
2010,07,02,12,57,15.50
2010,07,02,12,58,15.50
2010,07,02,12,59,15.50
2010,07,02,13,00,15.60
2010,07,02,13,01,15.50
2010,07,02,13,02,15.40
2010,07,02,13,03,15.40
2010,07,02,13,04,15.40
2010,07,02,13,05,15.40
2010,07,02,13,06,15.40
2010,07,02,13,07,15.40
2010,07,02,13,08,15.40
2010,07,02,13,09,15.40
2010,07,02,13,10,15.40
2010,07,02,13,11,15.40
2010,07,02,13,12,15.40
2010,07,02,13,13,15.40
2010,07,02,13,14,15.40
2010,07,02,13,15,15.50
2010,07,02,13,16,15.50
2010,07,02,13,17,15.50
2010,07,02,13,18,15.50
2010,07,02,13,19,15.50
2010,07,02,13,20,15.60
2010,07,02,13,21,15.60
2010,07,02,13,22,15.60
2010,07,02,13,23,15.60
2010,07,02,13,24,15.60
2010,07,02,13,25,15.60
2010,07,02,13,26,15.70
2010,07,02,13,27,15.70
2010,07,02,13,28,15.80
2010,07,02,13,29,15.90
2010,07,02,13,30,15.90
2010,07,02,13,31,15.80
2010,07,02,13,32,15.80
2010,07,02,13,33,15.80
2010,07,02,13,34,15.70
2010,07,02,13,35,15.70
2010,07,02,13,36,15.70
2010,07,02,13,37,15.70
2010,07,02,13,38,15.70
2010,07,02,13,39,15.70
2010,07,02,13,40,15.70
2010,07,02,13,41,15.70
2010,07,02,13,42,15.70
2010,07,02,13,43,15.70
2010,07,02,13,44,15.70
2010,07,02,13,45,15.70
2010,07,02,13,46,15.60
2010,07,02,13,47,15.60
2010,07,02,13,48,15.60
2010,07,02,13,49,15.70
2010,07,02,13,50,15.70
2010,07,02,13,51,15.80
2010,07,02,13,52,15.80
2010,07,02,13,53,15.90
2010,07,02,13,54,15.90
2010,07,02,13,55,15.90
2010,07,02,13,56,15.90
2010,07,02,13,57,15.90
2010,07,02,13,58,15.90
2010,07,02,13,59,15.90
2010,07,02,14,00,15.90
2010,07,02,14,01,15.90
2010,07,02,14,02,15.90
